Flag for Germany Weather past 2 weeks in Höxter, North Rhine-Westphalia, Germany

Now
67 °F

Overcast.


Feels Like: 67 °F
Forecast: 58 / 73 °F
Wind: 5 mph from Northeast

Location: Bad Lippspringe

Current Time: Jul 24, 2014 at 8:53:13 PM

Latest Report: Jul 24, 2014 at 8:00 PM


Visibility: 15 mi

Pressure: 29.98 "Hg

Humidity: 71%

Dew point: 58 °F

Location of HöxterLocation

Historic Weather in Höxter — Graph

°F

Höxter temperature yesterday

Maximum temperature yesterday: 82 °F (at 4:00 PM)
Minimum temperature yesterday: 62 °F (at 11:00 PM)
Average temperature yesterday: 73 °F

Past Weeks' High & Low Weather Summary

 TemperatureHumidityPressure
High90 °F (Jul 19, 4:00 PM)98% (Jul 9, 10:00 PM)30.19 "Hg (Jul 9, 10:00 PM)
Low52 °F (Jul 13, 4:00 AM)28% (Jul 19, 3:00 PM)29.66 "Hg (Jul 9, 7:00 PM)
Average69 °F72%29.95 "Hg
* Reported Jul 9 7:00 PM — Jul 24 7:00 PM, Höxter, Weather by CustomWeather, © 2014

Note: Actual official high and low records may vary slightly from our data, if they occured in-between our weather recording intervals... More about our weather records

Advertising

Höxter weather history for previous 24 hours

 ConditionsComfort  
Time TempWeatherWind HumidityBarometerVisibility
7:00 PM
Jul 24
67 °FOvercast.5 mph79%29.98 "Hg12 mi
6:00 PM64 °FLight rain. Overcast.6 mph84%29.99 "Hg9 mi
5:00 PM64 °FLight rain. Overcast.3 mph89%30.01 "Hg5 mi
4:00 PM74 °FOvercast.5 mph50%29.98 "Hg12 mi
3:00 PM77 °FScattered clouds.7 mph46%29.98 "Hg10 mi
2:00 PM74 °FPartly sunny.8 mph51%29.99 "Hg6 mi
1:00 PM77 °FScattered clouds.7 mph44%29.99 "Hg5 mi
12:00 PM75 °FSunny.7 mph48%29.99 "Hg7 mi
11:00 AM73 °FOvercast.7 mph51%30.00 "Hg14 mi
10:00 AM70 °FSunny.5 mph59%30.01 "Hg11 mi
9:00 AM69 °FPassing clouds.1 mph60%30.01 "Hg15 mi
8:00 AM67 °FSunny.1 mph66%30.01 "Hg17 mi
7:00 AM64 °FSunny.3 mph71%30.01 "Hg12 mi
6:00 AM62 °FSunny.2 mph75%30.00 "Hg14 mi
5:00 AM64 °FClear.3 mph69%30.00 "Hg14 mi
4:00 AM63 °FClear.2 mph69%30.01 "Hg16 mi
3:00 AM65 °FClear.2 mph64%30.01 "Hg15 mi
2:00 AM62 °FClear.1 mph79%30.03 "Hg13 mi
1:00 AM64 °FClear.2 mph70%30.04 "Hg14 mi
12:00 AM69 °FClear.5 mph59%30.03 "Hg16 mi
11:00 PM
Jul 23
62 °FClear.2 mph86%30.04 "Hg11 mi
10:00 PM65 °FClear.1 mph74%30.03 "Hg12 mi
9:00 PM73 °FSunny.3 mph53%30.01 "Hg14 mi
8:00 PM78 °FSunny.5 mph46%30.01 "Hg17 mi
Weather by CustomWeather, © 2014

See weather overviewHow to use our weather pages